sat.trackr.live / text

‹ back to catalog

STARLINK-4325

NORAD 53068 · 2022-077AB

PAYLOAD ACTIVE UNKNOWN

§ Identity

Operator
Country
US
Launch date
2022-07-11
Launch site
AFWTR
Launch vehicle
Mass (kg)
RCS (m²)

Purposes: comms

External: N2YO · Heavens-Above · Gunter

§ Orbital elements

Epoch: 2026-05-25T01:29:11.980608Z

Period
95.64 min
Inclination
97.4490°
Eccentricity
0.0000502
Mean motion
15.05616376 rev/d
Perigee alt
549.3 km
Apogee alt
550.0 km
Semi-major
6,927.8 km
B*
4.7665e-4
RAAN
326.1169°
Arg perigee
138.6094°
Mean anomaly
221.5172°
Rev number
21,247

§ Raw data

STARLINK-43251 53068U 22077AB  26145.06194422  .00006819  00000+0  47665-3 0  99902 53068  97.4490 326.1169 0000502 138.6094 221.5172 15.05616376212479

JSON: /api/v1/satellites/53068 · /tle

For live sub-satellite position, see the globe view (requires WebGL).

§ Visibility from observer

Set your observer location to see the next 7 days of passes ≥ 10°. The values pass through the URL so the page stays shareable.

No JS? Fill the form by hand. The geolocation button needs JavaScript.